Location: Herrnsheim
(49.6535°N, 8.3320°E)
Time: 15:14:41
(UTC+00:00)

Daily predictions for brighter satellites

Satellite Brightness Start Highest point End
(mag) Time Altitude Azimuth Time Altitude Azimuth Time Altitude Azimuth
BREEZE-M DEB (TANK) 4.0 19:06:51 10° SW 19:11:08 66° SE 19:27:20 10° ENE
ATLAS 3B R/B 3.1 19:17:30 10° NW 19:25:23 74° NE 19:32:48 10° SE
Cosmos 1867 3.6 19:24:11 10° SSW 19:29:35 72° SE 19:35:02 10° NE
Cosmos 332 Rocket 3.9 19:25:00 10° NNW 19:29:48 84° WSW 19:34:33 10° SSE
USA 186 3.1 19:28:49 10° ESE 19:30:48 19° ENE 19:32:49 10° NNE
Meteor 1-31 Rocket 3.2 19:29:50 10° S 19:33:15 55° WSW 19:36:42 10° NNW
MOS 1 4.4 19:32:11 10° SSE 19:37:52 87° WSW 19:43:36 10° NNW
Okean-O 3.2 19:33:50 10° SE 19:37:55 40° ENE 19:42:01 10° N
Cosmos 968 Rocket 3.6 19:32:54 10° NNW 19:38:10 75° ENE 19:43:24 10° SSE
Cosmos 676 Rocket 4.3 19:33:26 10° NNW 19:38:39 71° WSW 19:43:48 10° SSE
Cosmos 2333 Rocket 4.3 19:35:37 10° N 19:39:13 17° NNE 19:42:49 10° ENE
Cosmos 1892 Rocket 4.4 19:38:28 10° N 19:42:26 33° ENE 19:46:21 10° SE
Meteor 2-1 Rocket 4.3 19:38:17 10° S 19:43:53 60° E 19:49:22 10° NNE
Cosmos 2173 Rocket 4.1 19:38:58 10° S 19:44:57 60° E 19:51:03 10° NNE
Cosmos 1455 Rocket 4.0 19:43:53 10° SSE 19:47:45 31° E 19:51:37 10° NNE
Cosmos 1980 Rocket 2.5 19:45:51 10° NNW 19:51:29 56° NE 19:56:48 11° SE
SL-08 R/B 3.5 19:46:48 10° NNE 19:51:37 57° E 19:56:18 10° S
Okean 1 Rocket 3.1 19:49:21 10° S 19:53:40 66° E 19:58:05 10° NNE
Meteor 2-3 Rocket 3.8 19:51:19 10° NNW 19:56:58 85° W 20:02:37 10° S
Cosmos 2084 4.2 19:53:43 10° WSW 19:57:48 56° NW 20:01:53 10° NE
SPOT 3 Rocket 4.3 19:53:56 11° SE 19:58:29 39° ENE 20:03:13 10° N
CZ-4 R/B 2.9 19:56:23 10° SSW 19:59:36 30° W 20:02:51 10° NNW
CZ-4B R/B 3.7 19:58:30 13° ESE 20:00:51 26° ENE 20:03:44 10° N
Cosmos 1850 Rocket 4.0 19:56:16 10° NNW 20:01:28 76° ENE 20:06:17 12° SSE
Cosmos 1782 3.6 19:59:06 13° SE 20:01:36 26° E 20:04:36 10° NNE
ASTEX 1 4.5 20:01:14 10° SSW 20:05:59 46° W 20:10:46 10° NNW
CZ-4B R/B 3.8 20:03:53 10° S 20:09:28 61° WSW 20:15:04 10° NNW
Cosmos 2056 Rocket 4.5 20:04:32 10° SW 20:09:49 54° WNW 20:15:06 10° NNE
Cosmos 1833 Rocket 3.0 20:05:15 10° SW 20:10:51 71° WNW 20:16:29 10° NNE
Cosmos 2084 Rocket 4.5 20:07:01 10° NNW 20:10:55 36° NE 20:14:32 12° ESE
Cosmos 1110 Rocket 4.0 20:05:53 10° SSW 20:11:08 74° ESE 20:16:28 10° NNE
Cosmos 1802 Rocket 4.0 20:05:17 10° S 20:11:25 66° E 20:17:31 10° NNE
Terra 2.7 20:09:13 10° S 20:13:43 47° W 20:18:16 10° NNW
Gbstr 26 Del rocket 3.1 20:10:16 10° WNW 20:15:29 78° SSW 20:18:53 16° ESE
Sich 1 Rocket 3.6 20:12:10 10° S 20:16:31 84° W 20:20:55 10° N
Cosmos 2360 Rocket 4.3 20:13:03 10° N 20:16:51 18° NE 20:20:38 10° ENE
SJ 16-02 4.4 20:19:37 10° W 20:20:02 10° W 20:20:26 10° W
YAOGAN 11 4.1 20:16:52 10° NNE 20:21:15 72° ESE 20:25:41 10° S
CZ-2C R/B 3.4 20:23:39 19° ESE 20:24:40 24° ENE 20:26:59 10° NNE
Cosmos 1743 2.0 20:23:36 10° N 20:26:38 89° SW 20:28:34 20° S
Meteor 1-27 4.2 20:25:19 10° S 20:30:58 73° E 20:36:34 10° NNE
Cosmos 44 Rocket 3.3 20:26:28 10° SSW 20:31:28 67° SE 20:36:38 10° NE
Cosmos 1459 Rocket 4.3 20:26:16 10° SSW 20:32:30 70° WNW 20:38:40 10° N
ISS -3.1 20:29:35 10° SSW 20:32:37 32° SSE 20:35:05 14° E
Cosmos 2219 Rocket 4.4 20:30:50 10° N 20:34:19 16° NNE 20:37:48 10° ENE
Meteor 2-12 Rocket 4.4 20:29:46 10° N 20:35:52 80° E 20:40:49 16° SSE
Ariane Rocket 3.2 20:32:21 19° SE 20:35:53 60° ENE 20:40:53 10° N
ATLAS 2AS CENTAUR R/B 3.7 20:33:46 10° WSW 20:40:29 51° NW 20:47:07 10° NE
Spot 2 Rocket 4.2 20:37:05 10° S 20:41:57 50° W 20:46:51 10° NNW
Cosmos 2369 3.8 20:36:52 10° NNW 20:42:36 70° ENE 20:46:24 22° SE
BREEZE-M DEB (TANK) 4.2 20:39:48 10° W 20:42:55 38° SSW 20:47:10 20° SE
SL-4 R/B 3.6 20:40:14 10° W 20:43:07 20° SW 20:44:44 16° S
Cosmos 2322 Rocket 3.8 20:40:10 10° NNW 20:44:47 25° NE 20:49:16 11° E
Cosmos 2082 Rocket 2.4 20:41:21 10° S 20:46:52 53° ESE 20:52:25 10° NE
Cosmos 1437 Rocket 4.0 20:47:59 21° E 20:48:15 21° E 20:50:59 10° NE
USA 305 2.6 20:45:06 10° WNW 20:49:12 74° NNE 20:51:07 26° ESE
Cosmos 909 Rocket 4.3 20:43:39 10° S 20:49:40 46° ESE 20:55:43 10° NE
Cosmos 2151 3.6 20:47:19 10° N 20:51:13 39° ENE 20:52:53 26° ESE
USA 234 4.3 20:50:01 10° ENE 20:54:53 22° SE 20:55:31 21° SE
Cosmos 2233 Rocket 4.0 20:51:20 10° S 20:57:34 89° E 21:03:47 10° N
Cosmos 1607 3.9 20:51:53 10° SSW 20:57:57 65° ESE 21:04:09 10° NE
Cosmos 1626 Rocket 3.6 20:53:41 10° N 20:58:01 64° ENE 21:00:05 29° SSE
Cosmos 2228 2.9 20:55:36 16° SSW 20:58:50 81° W 21:02:59 10° N
USA 186 3.7 20:58:27 12° SW 21:00:06 19° W 21:02:08 10° NW
Okean O Rocket 3.1 20:57:31 10° SSW 21:01:20 31° W 21:05:11 10° NNW
Tsikada Rocket 4.1 20:58:02 10° NNW 21:04:12 73° W 21:08:51 18° S
CZ-4C R/B 2.2 21:04:34 10° SW 21:08:51 65° NW 21:14:25 10° NE
Cosmos 1992 Rocket 4.1 21:05:58 23° S 21:09:01 55° ESE 21:14:07 10° NNE
Cosmos 1452 Rocket 4.1 21:04:24 10° SW 21:09:33 58° WNW 21:14:45 10° NNE
COSMOS 2406 3.7 21:07:29 26° SSE 21:10:02 40° ESE 21:15:21 10° NE
Meteor 1-20 Rocket 4.2 21:05:21 10° N 21:10:54 71° ENE 21:13:52 29° SSE
SL-16 R/B 2.6 21:06:16 10° NNW 21:11:50 53° NE 21:14:58 25° ESE
Helios 1A 4.0 21:09:36 10° NE 21:12:54 25° E 21:13:02 25° E
Okean-O 4.5 21:10:44 10° SSW 21:14:20 25° W 21:17:57 10° NW
ATLAS 3B R/B 4.0 21:08:54 10° NW 21:15:37 34° WSW 21:20:47 15° SSW
Cosmos 1805 3.9 21:14:50 10° N 21:17:47 30° ENE 21:18:02 30° E
CZ-4B R/B 3.9 21:19:07 23° SSW 21:21:52 51° W 21:26:33 10° NNW
Cosmos 2333 Rocket 2.5 21:19:08 10° NNW 21:24:45 59° NE 21:27:39 29° SE
Cosmos 2098 Rocket 3.8 21:25:32 34° SE 21:27:09 45° E 21:31:35 10° NNE
Cosmos 1302 Rocket 4.3 21:22:05 10° SSW 21:27:13 66° WNW 21:32:24 10° NNE
Meteor 1-25 Rocket 4.2 21:24:13 10° N 21:29:57 76° ENE 21:32:32 34° SSE
CZ-4B R/B 4.4 21:33:11 17° SW 21:34:36 22° W 21:37:20 10° NW
Cosmos 1980 Rocket 3.6 21:30:20 10° NW 21:35:09 29° WSW 21:38:33 16° SSW
Cosmos 2061 Rocket 4.5 21:29:50 12° SSW 21:35:36 60° WNW 21:41:50 10° N
Cosmos 1544 Rocket 3.6 21:35:33 31° SSW 21:37:33 75° W 21:41:54 10° N
NOSS 3-3 (A) 3.6 21:34:26 10° SW 21:39:32 79° SE 21:45:48 10° NE
Cosmos 1933 3.1 21:44:19 50° SSW 21:45:14 80° WNW 21:49:03 10° N
Okean 1 3.9 21:49:59 35° ENE 21:49:59 35° ENE 21:52:56 10° NNE
Cosmos 2084 Rocket 4.0 21:45:44 10° NW 21:49:42 41° SW 21:50:19 39° SSW
Cosmos 1758 Rocket 4.5 21:47:52 10° NNW 21:51:59 41° W 21:53:42 28° SW
Helios 1B rocket 2.2 21:51:51 54° E 21:52:03 55° ENE 21:55:30 10° N
CZ-2C R/B 4.3 21:55:17 16° W 21:55:27 16° W 21:57:21 10° NW
Cosmos 1464 Rocket 3.9 21:53:23 35° S 21:56:08 76° E 22:02:18 10° NNE
Cosmos 2360 Rocket 2.4 21:56:18 10° NNW 22:01:58 65° ENE 22:04:14 36° SE
Meteor 2-10 4.2 21:59:08 10° NNW 22:04:52 90° W 22:06:57 42° S
NOSS 3-3 (C) 3.7 22:02:52 14° SW 22:07:29 84° NW 22:13:54 10° NE
ALOS 2 3.5 22:06:32 32° E 22:07:33 37° ENE 22:11:36 10° N
ARIANE 5 R/B 3.2 22:07:11 39° ESE 22:08:09 45° ENE 22:12:24 10° N
Cosmos 1825 Rocket 3.4 22:04:06 10° N 22:08:27 89° ENE 22:09:11 61° S
Geosat 4.3 22:03:46 10° NNE 22:08:44 65° NW 22:12:24 18° SW
ISS -2.9 22:05:54 10° W 22:08:14 42° W 22:08:14 42° W
Cosmos 1953 Rocket 3.8 22:05:49 10° N 22:10:08 55° ENE 22:10:47 50° ESE
Cosmos 2058 Rocket 4.0 22:11:46 31° E 22:11:53 31° E 22:15:45 10° NNE
USA 305 4.1 22:10:55 10° WNW 22:13:09 23° WSW 22:13:09 23° WSW
BREEZE-M R/B 4.3 22:08:12 10° W 22:16:36 85° N 22:22:19 10° E
Cosmos 1602 Rocket 4.5 22:13:39 10° NNW 22:17:38 38° W 22:18:42 32° SW
Cosmos 1092 Rocket 4.1 22:12:30 10° N 22:18:38 62° ENE 22:20:51 39° SE
Cosmos 2219 Rocket 2.6 22:13:56 10° NNW 22:19:31 57° NE 22:21:48 34° ESE
CZ-2C R/B 3.8 22:15:26 10° NNE 22:19:46 52° E 22:20:05 50° ESE
DEBRIS 4.4 22:15:34 10° W 22:19:51 89° S 22:36:58 10° E
NOSS 3-4 (A) 3.7 22:15:35 10° NW 22:22:15 90° SW 22:26:00 34° SE
Cosmos 1437 Rocket 4.1 22:21:47 25° W 22:22:46 29° WNW 22:25:57 10° N
NOSS 3-4 (C) 3.8 22:16:11 10° NW 22:22:52 90° ENE 22:26:40 33° SE
Cosmos 540 Rocket 3.9 22:23:21 40° ESE 22:23:48 41° ESE 22:28:37 10° NE
Cosmos 1461 2.9 22:26:32 53° ENE 22:26:32 53° ENE 22:29:31 10° NE
PSLV R/B 4.5 22:22:01 10° NNE 22:25:44 33° E 22:25:44 33° E
Cosmos 2322 Rocket 2.1 22:23:47 10° NNW 22:29:27 78° WSW 22:31:03 49° SSE
Cosmos 2034 Rocket 4.0 22:27:37 40° S 22:30:10 89° E 22:36:34 10° N
Cosmos 2082 Rocket 3.8 22:26:03 10° WSW 22:31:11 34° NW 22:36:22 10° NNE
Cosmos 220 Rocket 4.0 22:32:36 57° WSW 22:33:13 67° WNW 22:37:18 10° NNE
Cosmos 1707 3.9 22:38:21 26° NNE 22:38:21 26° NNE 22:39:50 10° NNE
Cosmos 1536 3.0 22:34:42 10° N 22:38:06 54° ENE 22:38:06 54° ENE
USA 234 3.1 22:32:11 10° ENE 22:38:43 68° SE 22:42:48 25° SW
ACS3 Solar Sail 3.8 22:39:11 10° NE 22:41:55 13° E 22:44:07 11° ESE
COSMOS 2428 4.0 22:37:42 10° NNW 22:42:55 35° NE 22:46:33 18° ESE
Cosmos 2237 Rocket 4.4 22:41:47 10° N 22:46:01 21° NE 22:50:14 10° E
Cosmos 1763 Rocket 3.5 22:45:39 56° SSE 22:46:39 71° ESE 22:51:56 10° NNE
Cosmos-2242 2.7 22:47:28 82° SE 22:47:34 83° E 22:51:43 10° NNE
Helios 1A 4.2 22:44:04 10° N 22:47:37 33° WNW 22:48:44 27° W
Cosmos 1503 Rocket 4.0 22:42:57 10° NNW 22:48:07 64° WSW 22:49:02 54° SSW
Cosmos 1777 Rocket 4.3 22:43:17 10° NNW 22:48:20 50° WSW 22:49:16 45° SW
Cosmos 2278 4.3 22:43:03 10° NW 22:48:25 43° WSW 22:49:38 37° SW
CZ-2C R/B 3.9 22:45:26 10° NNE 22:50:46 40° E 22:51:56 36° SE
Cosmos 990 Rocket 3.9 22:46:19 10° NNW 22:51:30 83° WSW 22:52:30 59° S
COSMOS 2406 4.3 22:49:26 13° WSW 22:54:19 42° NW 22:59:46 10° NNE
ARGOS Delta rocket 4.0 22:50:10 10° NNE 22:55:10 73° E 22:56:07 57° SSE
SL-16 R/B 3.3 22:50:47 10° NW 22:55:38 30° WSW 22:56:47 28° SW
USA 290 3.4 22:56:48 41° NNE 22:56:48 41° NNE 22:58:59 10° NNE
CZ-4C R/B 4.4 22:54:05 10° WNW 22:58:12 25° NNW 23:03:17 10° NE
Cosmos 1354 Rocket 3.9 22:53:06 10° NNW 22:58:22 75° WSW 22:59:19 58° S
Cosmos 1634 Rocket 3.9 22:57:50 47° S 22:59:46 85° E 23:06:00 10° N
Cosmos 1766 3.9 22:58:57 10° NNW 23:01:17 40° NW 23:01:17 40° NW
Cosmos 2279 Rocket 4.1 23:01:48 45° SSE 23:03:39 66° E 23:09:51 10° NNE
Cosmos 1470 3.3 23:01:37 10° N 23:04:12 43° NE 23:04:12 43° NE
SeaSat 1 3.0 23:03:53 34° ESE 23:05:43 53° NE 23:10:30 10° NNW
Meteor 2-6 Rocket 4.4 23:06:35 49° SSE 23:08:09 71° E 23:14:06 10° NNE
Cosmos 2333 Rocket 3.4 23:03:58 10° NW 23:08:41 27° WSW 23:09:39 26° WSW
Cosmos 2221 3.1 23:09:57 43° E 23:09:57 43° E 23:13:50 10° NNE
Meteor 2-2 Rocket 4.2 23:10:21 48° SSW 23:11:58 77° WNW 23:17:44 10° N
Cosmos 1842 3.9 23:13:51 40° NNE 23:13:51 40° NNE 23:16:01 10° NNE
Cosmos 841 Rocket 4.5 23:12:28 31° ESE 23:12:54 32° ESE 23:17:29 10° NE
CZ-2C R/B 2.8 23:16:22 45° SE 23:17:53 65° ENE 23:23:05 10° N
BREEZE-M DEB (TANK) 3.4 23:10:50 10° W 23:18:09 73° S 23:23:12 10° ESE
Cosmos 1833 4.2 23:17:41 46° SW 23:19:27 82° WNW 23:25:08 10° NNE
KORONAS-FOTON 4.3 23:25:14 46° NW 23:25:14 46° NW 23:28:00 10° N
Cosmos 1975 2.8 23:25:00 10° N 23:28:17 68° NNE 23:28:17 68° NNE
Aureole 1 Rocket 3.8 23:25:13 10° NNW 23:30:31 69° WSW 23:32:03 50° S
Cosmos 2266 Rocket 4.0 23:26:23 10° N 23:32:27 70° E 23:34:28 43° SSE
Cosmos 2322 3.7 23:27:33 10° NNW 23:33:18 77° ENE 23:35:16 42° SE
Cosmos 1812 Rocket 3.7 23:34:01 59° ESE 23:34:15 60° E 23:38:36 10° NNE
Cosmos 2297 Rocket 3.6 23:33:58 23° ESE 23:34:55 24° ESE 23:39:18 10° NE
Cosmos 44 3.4 23:31:23 10° NW 23:36:50 86° SW 23:38:07 53° SSE
Cosmos 1271 Rocket 3.0 23:38:07 55° NNW 23:38:07 55° NNW 23:40:55 10° N
Cosmos 372 Rocket 3.9 23:37:46 10° NNW 23:42:52 69° WSW 23:43:34 60° SSW
RESURS DK-1 2.5 23:39:55 10° NNW 23:43:52 61° NE 23:44:13 58° E
ALOS 2 3.9 23:43:55 27° W 23:43:57 27° W 23:47:44 10° NW
Cosmos 1937 Rocket 3.5 23:39:03 10° NNW 23:44:13 72° ENE 23:45:41 46° SE
ARIANE 5 R/B 4.2 23:44:33 23° W 23:44:40 23° W 23:48:11 10° NW
Cosmos 2360 Rocket 3.5 23:41:02 10° NW 23:45:29 24° WSW 23:45:57 24° WSW
ISS-0.223:50:53E23:50:53E23:41:23W
Meteor 1-11 Rocket 3.7 23:42:09 10° NNW 23:47:56 85° ENE 23:49:31 49° SSE
GP-B 2.9 23:44:31 10° N 23:48:55 78° W 23:49:14 73° SW
Cosmos 2058 Rocket 4.4 23:48:52 27° W 23:49:43 29° WNW 23:53:33 10° N
Cosmos 468 Rocket 4.1 23:51:08 47° SW 23:52:33 68° WNW 23:57:50 10° NNE
